Weather in Calafell

Spain     41°11′52″N   1°34′06″E
temp.,
°C
wind,
m/s
gust,
m/s
humid.,
%
clouds,
%
prec.,
mm/h
press.,
hPa
HPBL,
m
19 june, sat
sat1923:00+21e238481 0.0 1016261
02:00+20nne228213 0.0 1015170
05:00+20ene118899 0.0 1014174
08:00+22n3377100 0.0 1014269
11:00+27ssw224956 0.0 1013760
14:00+27sse3347100 0.0 1013658
17:00+26sse4452100 0.0 1012708
20:00+24ssw3465100 0.0 1012866
20 june, sun
sun2023:00+22s3575100 0.0 1014429
02:00+21n2277100 0.0 1012175
05:00+20sw1181100 0.0 1011154
08:00+21e3475100 0.1 1010348
11:00+23s346623 4.4 10101029
14:00+25ssw445782 4.5 10081112
17:00+27sw565027 0.1 10071779
20:00+25ssw34585 0.1 1007498
21 june, mon
mon2123:00+22wsw12710 0.3 1008118
02:00+22nw713490 0.3 1008669
05:00+20wnw49540 0.0 1009612
08:00+20nw37570 0.0 1010396
11:00+25wnw46360 0.0 10101346
14:00+28wsw48270 0.0 10092175
17:00+27ssw65354 0.0 10091609
20:00+24sw44491 0.0 1008580
22 june, tue
tue2223:00+22wsw356224 0.0 1010287
02:00+20wsw22750 0.0 1010229
05:00+19nnw23600 0.0 101084
08:00+21n25460 0.0 1011198
11:00+26se22334 0.0 10111489
14:00+26se64512 0.0 10121436
17:00+25se53540 0.0 10121132
20:00+24se33625 0.0 1012751
23 june, wed
wed2323:00+21ne01785 0.9 1013234
02:00+19nnw34744 1.9 1014123
05:00+18nnw33705 0.0 101379
08:00+19n2364100 0.1 1014177
11:00+23wsw335193 0.3 1015958
14:00+23wsw3450100 0.4 1015977
17:00+21s2260100 0.1 1015304
20:00+24ssw45435 0.1 1015662